Hlavní strana
METAR-TAF:

METAR-TAF

Letiště :

Summerville, Jižní Karolína, Spojené státy americké

zeměpisná šířka: 33-03-48N, zeměpisná délka: 080-16-46W, výška: 17 m

Aktuální stav počasí

Zpráva byla vytvořena před 21 minutami, v 08:55 UTC
Bezvětří
Teplota 22°C
Vlhkost vzduchu 100%
Tlak 1017 hPa
Viditelnost: 14.5 km
Jasno

METAR: KDYB 190855Z AUTO 00000KT 9SM CLR 22/22 A3003 RMK AO2

Čas: 05:16 (09:16 UTC)


TAF: chybějící

Stav a předpovědi počasí z více než 4 000 letišť (zprávy METAR a TAF).

Červené a žluté tečky na mapě představují dostupné meteorologické stanice.

Když kurzor umístíte na tečku, zobrazí se název stanice.

Pak kliknutím zobrazíte stav a předpověď počasí.

Chcete-li změnit mapu, kliknutím na zelené tlačítko se znaménkem +mapu přiblížíte, kliknutím na zelené tlačítko se znaménkem – mapu oddálíte a kliknutím na zelené šipky přejdete na sousední mapy.


METAR-TAF: